Date String (YYYY-MM-DD hh:mm:ss) UTC,Instrument flags,Ambient pressure (hPa),Sample flow (lpm),Bypass flow (lpm),Sample temperature (°C),Ambient temperature (°C),ASC tube jacket temperature (°C),LED temperature (°C),Box temperature (°C),Sample RH (%),Span deviation,Mass concentration (μg/m³),Mass concentration (μg/m³),Mass concentration (μg/m³)
DateTimeUTC,F1_M11,P_M11,Q1_M11,Q2_M11,T1_M11,T2_M11,T3_M11,T4_M11,T5_M11,U1_M11,ZSPAN_M11,X0_M11,X2_M11,X1_M11
2021-09-07 18:00:00,,0833.6,5.01,0.00,29.2,27.1,00.0,38.3,30.9,13.7,0002.2,0054.83,0038.62,0036.24
2021-09-07 18:01:00,,0833.6,5.01,0.00,29.2,27.5,00.0,38.3,31.0,13.6,0002.2,0054.59,0038.67,0036.26
2021-09-07 18:02:00,,0833.6,5.00,0.00,29.2,27.8,00.0,38.3,31.1,13.7,0002.0,0055.17,0038.79,0036.28
2021-09-07 18:03:00,,0833.6,4.99,0.00,29.3,28.1,00.0,38.3,31.2,13.6,0001.5,0054.46,0038.89,0036.33
2021-09-07 18:04:00,,0833.6,5.00,0.00,29.3,28.3,00.0,38.3,31.2,13.8,0001.0,0055.15,0038.97,0036.36
2021-09-07 18:05:00,,0833.6,5.00,0.00,29.4,28.5,00.0,38.3,31.3,13.9,0001.0,0055.79,0039.00,0036.36
2021-09-07 18:06:00,,0833.6,5.00,0.00,29.5,28.4,00.0,38.4,31.3,14.0,0000.9,0055.86,0039.03,0036.37
2021-09-07 18:07:00,,0833.6,5.00,0.00,29.4,26.7,00.0,38.3,30.9,14.0,0000.9,0056.11,0038.95,0036.34
2021-09-07 18:08:00,,0833.6,5.01,0.00,29.2,25.8,00.0,38.3,30.5,14.1,0000.9,0055.61,0038.88,0036.29
2021-09-07 18:09:00,,0833.6,5.00,0.00,29.2,26.2,00.0,38.3,30.7,14.3,0000.7,0055.92,0038.97,0036.32
2021-09-07 18:10:00,,0833.6,5.00,0.00,29.1,26.7,00.0,38.3,30.8,14.6,0000.6,0056.91,0039.05,0036.30
2021-09-07 18:11:00,,0833.6,5.00,0.00,29.2,27.1,00.0,38.3,30.8,14.7,0000.3,0057.51,0039.13,0036.30
2021-09-07 18:12:00,,0833.6,5.00,0.00,29.2,27.5,00.0,38.3,31.0,14.6,0000.3,0058.17,0039.20,0036.31
2021-09-07 18:13:00,,0833.6,5.00,0.00,29.2,27.8,00.0,38.3,31.1,14.8,0000.4,0058.61,0039.23,0036.34
2021-09-07 18:14:00,,0833.5,5.00,0.00,29.3,28.1,00.0,38.3,31.2,14.5,0000.5,0058.67,0039.25,0036.39
2021-09-07 18:15:00,,0833.5,5.00,0.00,29.4,28.3,00.0,38.3,31.2,14.5,0000.7,0059.04,0039.28,0036.44
2021-09-07 18:16:00,,0833.6,5.01,0.00,29.4,28.5,00.0,38.3,31.3,14.6,0000.8,0058.94,0039.37,0036.51
2021-09-07 18:17:00,,0833.6,4.99,0.00,29.5,28.7,00.0,38.4,31.4,14.7,0001.0,0059.63,0039.41,0036.56
2021-09-07 18:18:00,,0833.5,4.99,0.00,29.5,28.2,00.0,38.4,31.3,14.5,0001.0,0059.82,0039.58,0036.68
2021-09-07 18:19:00,,0833.5,4.99,0.00,29.4,26.4,00.0,38.4,30.7,14.6,0001.4,0060.43,0039.80,0036.80
2021-09-07 18:20:00,,0833.5,4.99,0.00,29.2,26.0,00.0,38.3,30.6,15.2,0001.4,0060.42,0039.87,0036.88
2021-09-07 18:21:00,,0833.5,5.02,0.00,29.2,26.4,00.0,38.3,30.8,15.1,0001.3,0059.27,0039.94,0036.97
2021-09-07 18:22:00,,0833.5,4.99,0.00,29.2,26.8,00.0,38.3,30.8,15.0,0001.5,0058.57,0040.01,0037.08
2021-09-07 18:23:00,,0833.5,4.99,0.00,29.2,27.3,00.0,38.3,30.9,15.1,0001.6,0058.82,0040.03,0037.13
2021-09-07 18:24:00,,0833.5,5.00,0.00,29.2,27.6,00.0,38.3,31.1,15.0,0001.3,0057.80,0040.05,0037.18
2021-09-07 18:25:00,,0833.5,5.01,0.00,29.3,28.0,00.0,38.3,31.1,14.9,0001.4,0058.10,0040.09,0037.20
2021-09-07 18:26:00,,0833.4,5.00,0.00,29.3,28.2,00.0,38.3,31.2,14.9,0001.4,0057.93,0040.18,0037.26
2021-09-07 18:27:00,,0833.5,4.99,0.00,29.4,28.4,00.0,38.3,31.3,14.8,0001.2,0058.35,0040.13,0037.27
2021-09-07 18:28:00,,0833.4,5.01,0.00,29.4,27.2,00.0,38.3,30.9,14.7,0001.0,0058.69,0040.21,0037.33
2021-09-07 18:29:00,,0833.4,5.00,0.00,29.2,25.8,00.0,38.3,30.5,14.9,0000.9,0058.49,0040.22,0037.35
2021-09-07 18:30:00,,0833.5,4.99,0.00,29.1,25.9,00.0,38.3,30.5,14.8,0000.8,0059.18,0040.26,0037.39
2021-09-07 18:31:00,,0833.4,5.01,0.00,29.1,26.4,00.0,38.3,30.7,14.9,0001.0,0058.70,0040.31,0037.44
2021-09-07 18:32:00,,0833.5,5.01,0.00,29.1,26.8,00.0,38.2,30.8,14.6,0001.2,0059.27,0040.26,0037.45
2021-09-07 18:33:00,,0833.4,4.99,0.00,29.1,27.3,00.0,38.2,30.9,14.7,0001.4,0059.53,0040.28,0037.44
2021-09-07 18:34:00,,0833.4,5.00,0.00,29.2,27.6,00.0,38.2,31.0,15.0,0001.3,0060.55,0040.40,0037.51
2021-09-07 18:35:00,,0833.4,5.00,0.00,29.2,28.0,00.0,38.2,31.1,14.8,0001.5,0060.97,0040.54,0037.59
2021-09-07 18:36:00,,0833.3,5.01,0.00,29.3,28.2,00.0,38.3,31.2,14.9,0001.2,0061.04,0040.54,0037.60
2021-09-07 18:37:00,,0833.3,4.99,0.00,29.3,28.4,00.0,38.3,31.2,14.7,0001.6,0060.41,0040.48,0037.58
2021-09-07 18:38:00,,0833.3,5.00,0.00,29.4,27.5,00.0,38.3,31.1,14.4,0001.8,0061.00,0040.49,0037.60
2021-09-07 18:39:00,,0833.2,5.00,0.00,29.2,25.9,00.0,38.2,30.6,14.5,0002.1,0061.32,0040.50,0037.59
2021-09-07 18:40:00,,0833.2,5.00,0.00,29.1,26.0,00.0,38.2,30.6,14.5,0001.9,0061.83,0040.49,0037.57
2021-09-07 18:41:00,,0833.2,5.00,0.00,29.1,26.4,00.0,38.2,30.7,14.6,0001.8,0061.86,0040.38,0037.51
2021-09-07 18:42:00,,0833.2,5.00,0.00,29.1,26.8,00.0,38.2,30.7,14.4,0001.8,0063.13,0040.17,0037.38
2021-09-07 18:43:00,,0833.2,5.01,0.00,29.1,27.3,00.0,38.2,30.8,14.8,0002.0,0063.12,0040.09,0037.28
2021-09-07 18:44:00,,0833.2,5.00,0.00,29.2,27.6,00.0,38.2,30.9,15.2,0002.0,0063.48,0039.99,0037.21
2021-09-07 18:45:00,,0833.1,5.00,0.00,29.2,27.9,00.0,38.2,31.0,14.8,0002.0,0063.09,0039.80,0037.08
2021-09-07 18:46:00,,0833.1,5.00,0.00,29.3,28.2,00.0,38.2,31.1,14.8,0002.1,0062.63,0039.63,0036.96
2021-09-07 18:47:00,,0833.2,5.01,0.00,29.3,28.4,00.0,38.2,31.2,14.5,0002.1,0062.53,0039.46,0036.87
2021-09-07 18:48:00,,0833.1,5.01,0.00,29.3,27.8,00.0,38.3,31.0,14.4,0001.7,0062.91,0039.34,0036.79
2021-09-07 18:49:00,,0833.1,5.00,0.00,29.2,26.1,00.0,38.2,30.5,14.4,0001.9,0061.81,0039.31,0036.73
2021-09-07 18:50:00,,0833.1,5.00,0.00,29.1,25.8,00.0,38.2,30.4,14.2,0001.6,0061.43,0039.14,0036.60
2021-09-07 18:51:00,,0833.1,5.01,0.00,29.0,26.3,00.0,38.2,30.6,14.3,0001.9,0061.32,0039.03,0036.48
2021-09-07 18:52:00,,0833.1,5.00,0.00,29.0,26.7,00.0,38.2,30.7,14.0,0002.0,0060.79,0039.00,0036.46
2021-09-07 18:53:00,,0833.1,4.99,0.00,29.0,27.2,00.0,38.1,30.8,13.9,0001.7,0059.26,0038.98,0036.43
2021-09-07 18:54:00,,0833.1,4.99,0.00,29.1,27.6,00.0,38.2,30.9,14.0,0001.1,0059.00,0039.00,0036.44
2021-09-07 18:55:00,,0833.0,4.99,0.00,29.2,27.9,00.0,38.2,31.0,14.1,0000.8,0058.28,0038.97,0036.45
2021-09-07 18:56:00,,0833.0,5.02,0.00,29.2,28.1,00.0,38.2,31.1,14.4,0000.8,0056.64,0038.95,0036.47
2021-09-07 18:57:00,,0833.0,5.01,0.00,29.3,28.2,00.0,38.2,31.1,14.3,0000.5,0056.19,0038.89,0036.45
2021-09-07 18:58:00,,0833.1,4.98,0.00,29.2,26.9,00.0,38.2,30.8,14.2,0000.3,0055.59,0038.92,0036.42
2021-09-07 18:59:00,,0833.1,5.01,0.00,29.1,25.6,00.0,38.2,30.4,14.3,0000.3,0055.71,0038.95,0036.43
